Regional Weather Roundup
Issued by NWS Charleston, WV

Home | Current Version | Previous Version | Graphics & Text | Print | Product List | Glossary On
Versions: 1 2 3 4 5 6 7 8 9 10 11 12 13 14 15 16 17 18 19 20 21 22 23 24 25 26 27
000
ASUS41 KRLX 030110
RWRRLX
West Virginia Regional Weather Roundup
National Weather Service Charleston WV
900 PM EDT MON MAY 02 2016

Note: "fair" indicates few or no clouds below 12,000 feet with no
significant weather and/or obstructions to visibility.

WVZ003-030200-
Northern Panhandle of West Virginia

CITY           SKY/WX    TMP DP  RH WIND       PRES   REMARKS
WHEELING       CLOUDY    55  48  77 NE6       29.92F
$$

WVZ009-030200-
Northwest West Virginia

CITY           SKY/WX    TMP DP  RH WIND       PRES   REMARKS
PARKERSBURG      N/A    N/A N/A N/A MISG        N/A
$$

WVZ006-030200-
Western West Virginia

CITY           SKY/WX    TMP DP  RH WIND       PRES   REMARKS
HUNTINGTON     LGT RAIN  61  59  93 S3        29.90F
$$

WVZ015-030200-
West Central West Virginia

CITY           SKY/WX    TMP DP  RH WIND       PRES   REMARKS
CHARLESTON     CLOUDY    62  60  93 CALM      29.89F
$$

WVZ022-031-030200-
North Central West Virginia

CITY           SKY/WX    TMP DP  RH WIND       PRES   REMARKS
CLARKSBURG     LGT RAIN  60  57  89 S5        29.89F
MORGANTOWN     LGT RAIN  60  56  86 NW3       29.91F
$$

WVZ025-035-042-045-030200-
Southern West Virginia

CITY           SKY/WX    TMP DP  RH WIND       PRES   REMARKS
BECKLEY        MOCLDY    57  55  93 SE5       29.94F
LOGAN          NOT AVBL
BLUEFIELD        N/A     54  53  97 SE3       29.96F
LEWISBURG      MOCLDY    57  56  98 SW5       29.97S
$$

WVZ047-030200-
Northern Mountains of West Virginia

CITY           SKY/WX    TMP DP  RH WIND       PRES   REMARKS
ELKINS           N/A     58  53  84 SW3       29.94F
$$

WVZ052-030200-
Eastern Panhandle of West Virginia

CITY           SKY/WX    TMP DP  RH WIND       PRES   REMARKS
MARTINSBURG    CLOUDY    69  63  81 S9        29.82R
PETERSBURG     MOCLDY    69  52  53 W5        29.89S
$$




USA.gov is the U.S. government's official web portal to all federal, state and local government web resources and services.